Location: Newark
(34.1333°N, 7.9667°W)
Time: 14:04:35
(UTC+00:00)

S-56A Canister/Altair - Pass Details

Date: 10 December 2021
Orbit: 634 x 2499 km, 38.9° (Epoch: 25 January)

Event Time Altitude Azimuth Distance (km) Brightness Sun altitude
Exits shadow 04:21:09 13° 141° (SE) 1,971 10.0 -37.6°
Drops below altitude 10° 04:21:43 10° 138° (SE) 2,174 10.3 -37.5°
Sets 04:23:52 0° 133° (SE) 2,995 11.2 -37.0°
